Hourly Data Report for October 04, 2014

All times are specified in Local Standard Time (LST). Add 1 hour to adjust for Daylight Saving Time where and when it is observed.

MONCTON INTL A
NEW BRUNSWICK

46°06'44.000" N
64°40'43.000" W
70.70 m
8103201
71705
YQM

Download Data

Hourly Data (October 2014)
Hourly Data Report for October 4, 2014
Temp Definition
°C
Dew Point Temp Definition
°C
Rel Hum Definition
%
Wind Dir Definition
10's deg

Wind Spd Definition
km/h
Visibility Definition
km
Stn Press Definition
kPa
Hmdx Definition


Wind Chill Definition


Weather Definition


TIME
00:00 Legend Double Dagger 10.0 9.1 94 7 9 24.1 100.73     LegendNANA
01:00 Legend Double Dagger 10.2 9.1 93 7 8 24.1 100.71     LegendNANA
02:00 Legend Double Dagger 10.6 9.5 93 8 9 24.1 100.65     Cloudy
03:00 Legend Double Dagger 10.4 9.6 95 5 10 24.1 100.59     LegendNANA
04:00 Legend Double Dagger 10.8 10.0 95 6 10 24.1 100.56     LegendNANA
05:00 Legend Double Dagger 10.9 10.3 96 6 12 12.9 100.54     Drizzle
06:00 Legend Double Dagger 11.2 10.6 96 8 9 3.2 100.53     Drizzle,Fog
07:00 Legend Double Dagger 11.5 11.1 97 7 11 1.6 100.54     Drizzle,Fog
08:00 Legend Double Dagger 12.4 11.9 97 9 13 2.4 100.54     Rain,Drizzle,Fog
09:00 Legend Double Dagger 13.1 12.5 96 9 13 2.4 100.51     Rain,Drizzle,Fog
10:00 Legend Double Dagger 14.1 13.0 93 10 20 9.7 100.50     Drizzle,Fog
11:00 Legend Double Dagger 14.5 13.2 92 10 19 24.1 100.44     Cloudy
12:00 Legend Double Dagger 15.7 14.1 90 11 14 24.1 100.39     LegendNANA
13:00 Legend Double Dagger 16.2 14.2 88 11 10 24.1 100.33     LegendNANA
14:00 Legend Double Dagger 17.4 14.7 84 12 11 24.1 100.26     Cloudy
15:00 Legend Double Dagger 18.0 14.9 82 12 13 24.1 100.24     LegendNANA
16:00 Legend Double Dagger 17.6 14.9 84 9 13 24.1 100.22     LegendNANA
17:00 Legend Double Dagger 16.3 14.5 89 8 11 24.1 100.22     Drizzle
18:00 Legend Double Dagger 15.8 14.2 90 8 13 24.1 100.23     LegendNANA
19:00 Legend Double Dagger 15.0 14.1 94 8 10 9.7 100.27     Drizzle,Fog
20:00 Legend Double Dagger 15.7 14.4 92 11 16 24.1 100.26     Cloudy
21:00 Legend Double Dagger 15.6 14.0 90 10 14 24.1 100.27     LegendNANA
22:00 Legend Double Dagger 15.2 13.4 89 12 18 24.1 100.23     LegendNANA
23:00 Legend Double Dagger 14.6 13.0 90 11 20 24.1 100.19     Cloudy

Notes on Data Quality.

Legend

  • E = Estimated
  • M = Missing
  • NA = Not Available
  • ‡ = Partner data that is not subject to review by the National Climate Archives
Date modified: